STARLINK-32296, 61524

Orbit data source: Space-Track

STARLINK-32296, 61524 is a payload satellite owned by SpaceX/Seattle (US) in LEO that was launched on Tue, 15 Oct 2024 UTC via an FALCON 9 launch vehicle from the Air Force Eastern Test Range (AFETR). Payload-class satellites include a variety of spacecraft equipped with specific instruments for various scientific and technological missions. These include communications satellites like Starlink; space stations such as the ISS; scientific satellites like the Hubble; Earth observation satellites from companies like Planet Labs, Umbra, and HawkEye 360; GPS; miniature CubeSats for education and research; and military/defense satellites.

Loading next visibility...
Identifier
61524, 2024-183R
Orbit
LEO
Country
Flag of USUS
Related business
Manufacturer
SpaceX/Seattle
Mission
Operational Commercial Communications
Bus & Motor
STARLINK V2M, Unknown motor
Mass
730 kg wet, ~700 kg dry
Launch date (UTC)
2024-10-15 (1 year ago)
Launch vehicle
FALCON 9
Launch site
Air Force Eastern Test Range (AFETR)
Object type
Payload
Rocket body
Debris
Shape & HBR
Box + 2 Pan, 17.7 m
Radar Cross Section
33.884 m², Large (>1 m²)

Expand to show TLE details & history
Last TLE update: 11 hours ago

TLE from 11 hours ago
0 STARLINK-32296
1 61524U 24183R   25346.93181064  .00002943  00000-0  11140-3 0  9996
2 61524  53.1591 185.1199 0001093 103.1604 256.9519 15.30211679 66370
Epoch: 2025-12-12T22:21Z
TLE epoch observation values (Epoch: 2025-12-12T22:21:48.439Z)
Latitude
0.00001°
Longitude
127.80173°
Altitude
476.249 km
Speed
7.629 km/s
True Right ascension
12h 20m 28s
True Declination
0° 00' 00"
Sunlit
Object was in daylight at epoch
Visualization orbit readout
Latitude
Unknown
Longitude
Unknown
Altitude
Unknown
Speed
Unknown
Apparent Right ascension
Unknown
Apparent Declination
Unknown
Sunlit
N/A
Visualization observer readout
Local Sidereal Time
07:27:33
Azimuth
Unknown
Elevation
Unknown
Doppler factor
Unknown
Orbital elements
Apogee altitude
476.186 km
Perigee altitude
474.688 km
Semi-major axis
6,853.574 km
Eccentricity
0.00011
Inclination
53.1591°
RAAN
185.1199°
Arg. of periapsis
103.1604°
True anomaly
256.9397°
Mean anomaly
256.9519°
Eccentric anomaly
256.9458°
Mean motion
3.82532 °/min
Orbital period
94.11 mins
BSTAR
0.0001114
Loading maneuver chart data...
Computing Atmospheric mass density...
Loading historical data...
Loading historical data...
Loading historical data...
Loading historical data...
Loading historical data...
Loading historical data...
Loading historical data...

Documentation

Showing up to 5 results
|